[[{"header":{"parameterUnit":"m.s-1","parameterCategory":1,"la1":30.2991,"la2":30.254,"lo1":-89.0895,"lo2":-89.0444,"dy":0.0017,"dx":0.0017,"nx":28,"ny":28,"refTime":"2023-11-20T09:00:00:Z","depth":0,"parameterNumber":2,"parameterNumberName":"U-component_of_WINDS"},"data":[0,0,0,0,0,0,0,0,0,0,0,0,0,0,0,0,0,0,0,0,0,0,0,0,0,0,0,0,0,0,0,0,0,0,0,0,0,0,0,0,0,0,0,0,0,0,0,0,0,0,0,0,0,0,0,0,0,0,1.6293,1.6292,0,1.6197,1.6196,1.6194,1.6137,1.6137,1.6137,1.6136,1.6035,1.6033,1.6031,0,0,0,0,0,0,0,0,0,0,0,0,0,1.6429,1.6427,1.6293,1.6292,1.6291,1.6197,1.6196,1.6194,1.6137,1.6137,1.6137,1.6136,1.6036,1.6033,1.603,0,0,0,0,0,0,0,0,0,0,0,0,0,1.6355,1.6426,1.6294,1.6251,1.6246,1.6197,1.6195,1.6194,1.6137,1.6137,1.6136,1.6136,1.6037,1.6034,1.603,1.6015,0,0,1.6019,1.6017,0,0,0,0,0,0,0,0,1.6359,1.635,1.6259,1.6254,1.6249,1.6179,1.6206,1.6134,1.6137,1.6179,1.6136,1.6136,1.6083,1.6076,1.6058,1.601,1.6005,1.6018,1.6016,1.6014,1.6013,0,0,0,0,0,0,0,1.6365,1.6354,1.6255,1.6257,1.6251,1.6237,1.6226,1.6192,1.6134,1.6175,1.6171,1.616,1.608,1.6062,1.6056,1.6004,1.6018,1.6015,1.6013,1.6011,1.5942,1.5942,0,0,0,0,0,0,1.6377,1.6359,1.6258,1.6252,1.6304,1.6235,1.6223,1.6201,1.6134,1.6124,1.6161,1.6158,1.6068,1.606,1.6052,1.6031,1.6015,1.6011,1.6009,1.5941,1.5942,1.5942,0,0,0,0,0,0,1.638,1.6368,1.6262,1.6304,1.629,1.6233,1.621,1.62,1.6181,1.6123,1.6113,1.6152,1.6068,1.6057,1.6025,1.6027,1.6009,1.6006,1.5941,1.5941,1.5942,1.5989,0,0,0,0,0,0,1.6384,1.637,1.6363,1.6305,1.6288,1.6237,1.621,1.6198,1.6175,1.6171,1.6113,1.6103,1.6067,1.6031,1.6022,1.6021,1.6003,1.594,1.5941,1.5942,1.5987,1.5991,1.5994,0,0,0,0,0,1.6389,1.6379,1.6363,1.6351,1.6278,1.6237,1.6227,1.6186,1.6176,1.6169,1.6132,1.6105,1.6029,1.6028,1.6017,1.6016,1.594,1.5941,1.5942,1.5985,1.599,1.5994,0,0,0,0,0,0,1.6436,1.637,1.6351,1.6322,1.6286,1.6227,1.6217,1.6192,1.6158,1.6155,1.6105,1.6093,1.6066,1.6038,1.6039,1.5999,1.5981,1.598,1.6018,1.6022,1.6026,1.6033,1.6,0,0,0,0,0,1.6444,1.6416,1.636,1.6339,1.6322,1.6273,1.6254,1.6226,1.6186,1.617,1.6131,1.6093,1.6061,1.604,1.6007,1.5983,1.597,1.5977,1.5981,1.5984,1.5983,1.5971,1.5974,1.5945,1.5945,1.5945,0,0,1.6458,1.6418,1.6404,1.6348,1.6316,1.629,1.626,1.6232,1.6212,1.6165,1.6133,1.6104,1.6059,1.6032,1.6018,1.6007,1.5989,1.5985,1.5988,1.5985,1.5972,1.5975,1.5977,1.5945,1.5945,1.5945,0,0,1.647,1.6437,1.6418,1.6388,1.6342,1.631,1.6306,1.6251,1.6231,1.6198,1.6164,1.6139,1.6084,1.6054,1.6031,1.6037,1.6012,1.6028,1.6047,1.6036,1.6038,1.604,1.6043,1.6045,1.6028,1.6028,1.6028,0,1.6493,1.6451,1.641,1.6385,1.6363,1.6322,1.6302,1.6275,1.622,1.6206,1.6195,1.6128,1.6094,1.606,1.6063,1.6045,1.604,1.6033,1.6041,1.6043,1.6044,1.6046,1.6047,1.603,1.603,1.603,1.6029,0,1.6483,1.6455,1.6445,1.6395,1.6371,1.6349,1.6306,1.6287,1.6262,1.6232,1.6201,1.616,1.6119,1.611,1.6084,1.6074,1.6069,1.6051,1.6032,1.6049,1.6051,1.6052,1.6033,1.6033,1.6032,1.6031,0,0,1.6519,1.645,1.6447,1.6425,1.6373,1.635,1.6328,1.629,1.6275,1.624,1.622,1.6177,1.6161,1.6135,1.6107,1.6097,1.6107,1.608,1.6079,1.6087,1.6094,1.6108,1.611,1.609,1.609,1.609,1.6098,0,1.6524,1.6481,1.6445,1.6416,1.6391,1.6354,1.6334,1.6301,1.6273,1.6248,1.6217,1.6188,1.6168,1.6153,1.6142,1.6108,1.6108,1.6107,1.6072,1.6071,1.6084,1.611,1.6124,1.6133,1.6099,1.6099,1.6099,0,1.6522,1.6491,1.646,1.6413,1.6401,1.6384,1.6348,1.6325,1.6287,1.6268,1.6242,1.6213,1.6189,1.6175,1.6141,1.6142,1.6126,1.6108,1.6107,1.6101,1.6085,1.6106,1.6135,1.6137,1.6099,1.6099,1.6099,0,1.6553,1.6502,1.6478,1.646,1.6405,1.6395,1.6372,1.6334,1.6314,1.6283,1.627,1.6236,1.6217,1.6192,1.6156,1.6148,1.6127,1.6108,1.611,1.6111,1.6106,1.6107,1.6133,1.6097,1.6097,1.6097,1.6097,0,1.6561,1.6543,1.6491,1.6476,1.6456,1.6417,1.6398,1.6372,1.6339,1.6319,1.6285,1.6267,1.622,1.6197,1.6169,1.6146,1.6138,1.6122,1.6115,1.6125,1.6127,1.6113,1.6111,1.6097,1.6097,1.6097,1.6097,0,1.659,1.6554,1.6526,1.6478,1.6466,1.6453,1.6412,1.6397,1.6369,1.6344,1.6336,1.6292,1.6263,1.6225,1.6183,1.6165,1.6146,1.6134,1.6159,1.6154,1.6159,1.6159,1.6177,1.6178,1.6141,1.6142,1.6142,0,1.6598,1.6584,1.6536,1.652,1.6499,1.6474,1.6455,1.6417,1.6398,1.6357,1.6347,1.6316,1.6289,1.6245,1.6209,1.6178,1.6166,1.6174,1.616,1.6172,1.6166,1.6167,1.6167,1.6177,1.6178,1.6178,1.6178,0,1.6615,1.6599,1.6572,1.6541,1.652,1.6493,1.6464,1.6454,1.641,1.6391,1.6362,1.6342,1.6302,1.6272,1.6237,1.6213,1.6189,1.6184,1.6183,1.6192,1.6207,1.62,1.6168,1.6183,1.6182,1.6182,1.6182,1.6182,1.6633,1.662,1.6585,1.6558,1.6534,1.6509,1.6493,1.6465,1.644,1.6405,1.6384,1.6357,1.6323,1.6274,1.6252,1.6231,1.6221,1.6219,1.6218,1.6218,1.6222,1.6212,1.6224,1.6224,1.6224,1.6223,1.6223,0,1.6649,1.6626,1.6601,1.6564,1.6544,1.6525,1.6494,1.6477,1.6454,1.6425,1.64,1.6369,1.6341,1.6305,1.6274,1.6264,1.6253,1.6258,1.6257,1.6253,1.6232,1.6236,1.6268,1.6268,1.6268,1.6268,1.6268,1.6268,1.6654,1.6632,1.6613,1.6579,1.6556,1.653,1.6514,1.6492,1.6469,1.6435,1.6412,1.639,1.6359,1.6327,1.6301,1.6291,1.6281,1.629,1.6277,1.6258,1.6254,1.625,1.6254,1.6288,1.6288,1.6299,1.6299,1.63]},{"header":{"parameterUnit":"m.s-1","parameterCategory":1,"la1":30.2991,"la2":30.254,"lo1":-89.0895,"lo2":-89.0444,"dy":0.0017,"dx":0.0017,"nx":28,"ny":28,"refTime":"2023-11-20T09:00:00:Z","depth":0,"parameterNumber":3,"parameterNumberName":"V-component_of_WINDS"},"data":[0,0,0,0,0,0,0,0,0,0,0,0,0,0,0,0,0,0,0,0,0,0,0,0,0,0,0,0,0,0,0,0,0,0,0,0,0,0,0,0,0,0,0,0,0,0,0,0,0,0,0,0,0,0,0,0,0,0,-4.8035,-4.8035,0,-4.8041,-4.8042,-4.8042,-4.7994,-4.7992,-4.7991,-4.799,-4.7996,-4.7997,-4.7998,0,0,0,0,0,0,0,0,0,0,0,0,0,-4.7983,-4.7984,-4.8035,-4.8035,-4.8035,-4.8041,-4.8042,-4.8042,-4.7994,-4.7992,-4.7991,-4.7989,-4.7995,-4.7997,-4.7999,0,0,0,0,0,0,0,0,0,0,0,0,0,-4.7999,-4.7984,-4.8035,-4.8012,-4.801,-4.8041,-4.8042,-4.8042,-4.7994,-4.7992,-4.799,-4.7988,-4.7995,-4.7997,-4.7999,-4.8052,0,0,-4.8005,-4.8006,0,0,0,0,0,0,0,0,-4.7998,-4.8001,-4.8015,-4.8014,-4.8012,-4.8015,-4.8025,-4.8045,-4.7995,-4.8,-4.799,-4.7987,-4.8004,-4.8005,-4.801,-4.8052,-4.8052,-4.8005,-4.8007,-4.8008,-4.8008,0,0,0,0,0,0,0,-4.7997,-4.8,-4.8038,-4.8016,-4.8013,-4.8002,-4.8002,-4.8029,-4.8013,-4.8,-4.7996,-4.7998,-4.8002,-4.8008,-4.801,-4.8053,-4.8005,-4.8007,-4.8008,-4.8009,-4.814,-4.8142,0,0,0,0,0,0,-4.7999,-4.8,-4.8037,-4.8038,-4.8,-4.8005,-4.8005,-4.8016,-4.8013,-4.801,-4.7999,-4.7995,-4.8006,-4.8008,-4.801,-4.8073,-4.8008,-4.801,-4.8011,-4.8138,-4.8141,-4.8143,0,0,0,0,0,0,-4.7998,-4.8003,-4.8037,-4.8018,-4.8021,-4.8008,-4.8021,-4.8017,-4.8023,-4.8012,-4.8009,-4.8009,-4.8004,-4.8007,-4.8042,-4.8072,-4.801,-4.8012,-4.8135,-4.8139,-4.8142,-4.8199,0,0,0,0,0,0,-4.7997,-4.8003,-4.8022,-4.8019,-4.8023,-4.8069,-4.8022,-4.8019,-4.8027,-4.8022,-4.802,-4.8018,-4.8003,-4.804,-4.8044,-4.8074,-4.8014,-4.8133,-4.8137,-4.8141,-4.8194,-4.8203,-4.8212,0,0,0,0,0,-4.7995,-4.8037,-4.8023,-4.8028,-4.8047,-4.8071,-4.8073,-4.8055,-4.803,-4.8049,-4.8043,-4.8018,-4.8069,-4.8043,-4.8049,-4.808,-4.8131,-4.8136,-4.8141,-4.819,-4.8202,-4.8211,0,0,0,0,0,0,-4.8044,-4.8036,-4.8021,-4.8063,-4.8068,-4.8063,-4.8087,-4.8067,-4.8079,-4.8074,-4.8051,-4.8051,-4.809,-4.8088,-4.806,-4.8132,-4.8095,-4.8102,-4.8131,-4.8142,-4.8151,-4.815,-4.8016,0,0,0,0,0,-4.806,-4.808,-4.8072,-4.811,-4.8114,-4.81,-4.811,-4.8096,-4.81,-4.8101,-4.8097,-4.8102,-4.8119,-4.8131,-4.8146,-4.8194,-4.8193,-4.8218,-4.8227,-4.8234,-4.824,-4.8266,-4.8277,-4.8159,-4.8159,-4.8159,0,0,-4.8092,-4.8091,-4.8104,-4.812,-4.8122,-4.8144,-4.8102,-4.8126,-4.8142,-4.8105,-4.8138,-4.8136,-4.814,-4.8182,-4.82,-4.8182,-4.8272,-4.8241,-4.8247,-4.8248,-4.8273,-4.8284,-4.8294,-4.8163,-4.8162,-4.8162,0,0,-4.8162,-4.8163,-4.8196,-4.8199,-4.8204,-4.8195,-4.8203,-4.8201,-4.8198,-4.8231,-4.8204,-4.8223,-4.8253,-4.8257,-4.8263,-4.8339,-4.8317,-4.8345,-4.839,-4.8416,-4.8426,-4.8434,-4.8461,-4.8471,-4.835,-4.835,-4.835,0,-4.8202,-4.8233,-4.8215,-4.8242,-4.825,-4.8219,-4.8252,-4.8256,-4.8265,-4.8272,-4.8251,-4.8289,-4.8289,-4.8333,-4.8352,-4.8358,-4.8366,-4.8344,-4.8426,-4.8434,-4.8441,-4.8467,-4.8477,-4.8354,-4.8353,-4.8353,-4.8353,0,-4.8282,-4.8305,-4.8331,-4.8341,-4.8353,-4.8382,-4.8369,-4.8383,-4.8369,-4.8363,-4.8398,-4.8398,-4.8413,-4.8422,-4.8408,-4.8465,-4.8453,-4.843,-4.8392,-4.8456,-4.848,-4.8489,-4.8358,-4.8357,-4.8356,-4.8355,0,0,-4.8381,-4.8383,-4.8393,-4.8398,-4.8402,-4.8419,-4.8448,-4.8464,-4.8476,-4.8484,-4.8509,-4.8536,-4.8515,-4.8522,-4.8509,-4.8532,-4.8593,-4.8506,-4.8505,-4.8522,-4.8655,-4.8672,-4.8684,-4.8579,-4.8581,-4.8582,-4.8655,0,-4.8449,-4.8499,-4.8485,-4.8535,-4.8556,-4.8529,-4.8554,-4.856,-4.8556,-4.8573,-4.8568,-4.8588,-4.8559,-4.8563,-4.8585,-4.8581,-4.8619,-4.8575,-4.8601,-4.8602,-4.86,-4.8696,-4.8714,-4.8782,-4.8664,-4.8666,-4.8667,0,-4.8535,-4.8548,-4.8601,-4.8603,-4.8611,-4.8635,-4.8649,-4.8666,-4.8673,-4.8668,-4.8678,-4.866,-4.869,-4.8654,-4.8694,-4.8665,-4.8675,-4.8675,-4.8677,-4.8678,-4.8637,-4.8699,-4.8804,-4.8814,-4.8681,-4.868,-4.8679,0,-4.8602,-4.8632,-4.8668,-4.8673,-4.8677,-4.8694,-4.8696,-4.8701,-4.8712,-4.8725,-4.8732,-4.8748,-4.8756,-4.8769,-4.8757,-4.8732,-4.88,-4.8763,-4.8797,-4.8798,-4.8811,-4.881,-4.8919,-4.882,-4.8819,-4.8819,-4.8819,0,-4.8679,-4.8713,-4.8698,-4.872,-4.8757,-4.8741,-4.8778,-4.8778,-4.8783,-4.8804,-4.8782,-4.8802,-4.8785,-4.8805,-4.8796,-4.8831,-4.8836,-4.8833,-4.883,-4.8834,-4.8835,-4.8839,-4.8834,-4.8822,-4.8821,-4.8821,-4.882,0,-4.8759,-4.8751,-4.8788,-4.8789,-4.8791,-4.8818,-4.8819,-4.884,-4.8835,-4.8863,-4.8868,-4.8861,-4.8883,-4.8873,-4.8896,-4.889,-4.8935,-4.8926,-4.8933,-4.8931,-4.8965,-4.8962,-4.908,-4.9095,-4.8987,-4.8988,-4.8989,0,-4.8808,-4.8833,-4.8838,-4.8852,-4.8856,-4.8877,-4.8889,-4.8875,-4.8888,-4.8899,-4.8919,-4.8939,-4.8955,-4.8992,-4.8988,-4.9006,-4.8997,-4.9037,-4.8999,-4.9004,-4.8997,-4.8996,-4.8998,-4.9044,-4.9046,-4.9047,-4.9047,0,-4.8897,-4.8892,-4.891,-4.8928,-4.8943,-4.8955,-4.8966,-4.8978,-4.8965,-4.8981,-4.9004,-4.9017,-4.9041,-4.9062,-4.9078,-4.9081,-4.9062,-4.906,-4.9069,-4.9073,-4.9076,-4.9075,-4.8953,-4.9057,-4.9056,-4.9055,-4.9054,-4.9054,-4.8962,-4.8984,-4.8992,-4.9013,-4.902,-4.9031,-4.9051,-4.905,-4.9069,-4.9088,-4.908,-4.9106,-4.9114,-4.9134,-4.914,-4.9161,-4.9145,-4.9158,-4.9161,-4.9164,-4.9168,-4.9074,-4.9164,-4.9163,-4.9163,-4.9163,-4.9163,0,-4.905,-4.9054,-4.9074,-4.9091,-4.9108,-4.9091,-4.9102,-4.9118,-4.9142,-4.9151,-4.9168,-4.9195,-4.9216,-4.9215,-4.9234,-4.9251,-4.9244,-4.9257,-4.9255,-4.9256,-4.9182,-4.9172,-4.9263,-4.9263,-4.9263,-4.9263,-4.9263,-4.9263,-4.9097,-4.9133,-4.913,-4.917,-4.9174,-4.9201,-4.9209,-4.922,-4.9227,-4.9259,-4.9277,-4.9277,-4.9282,-4.9302,-4.9321,-4.932,-4.9328,-4.9345,-4.9341,-4.9271,-4.9261,-4.9251,-4.9242,-4.9347,-4.9347,-4.9413,-4.9414,-4.9414]}]]